Leesburg, VA

6:19 AM EST on December 08, 2019 (GMT -0500)
Leesburg Executive

Weather History for KJYO - April, 2019

Change the Weather History Date:

Monday, April 8, 2019

  Actual Average (KIAD) Record (KIAD)
Temperature  
Mean Temperature 68 °F -  
Max Temperature 80 °F 62 °F 87 °F (1991)
Min Temperature 55 °F 37 °F 24 °F (1970)
Cooling Degree Days 2    
Growing Degree Days 18 (Base 50)    
Moisture  
Dew Point 59 °F    
Average Humidity 78    
Maximum Humidity 100    
Minimum Humidity 48    
Precipitation  
Precipitation 0.00 in - - ()
Sea Level Pressure  
Sea Level Pressure 29.88 in    
Wind  
Wind Speed 6 mph (WSW)    
Max Wind Speed 16 mph    
Max Gust Speed 28 mph    
Visibility 10 miles    
Events      
Averages and records for this station are not official NWS values.
T = Trace of Precipitation, MM = Missing Value Source: NWS Daily Summary

Daily Weather History Graph

Daily Weather History Graph

Search for Another Location

Airport or City:

Astronomy

Apr. 08, 2019 Rise Set
Actual Time 6:44 AM EDT 7:40 PM EDT
Civil Twilight 6:17 AM EDT 8:07 PM EDT
Nautical Twilight 5:44 AM EDT 8:40 PM EDT
Astronomical Twilight 5:11 AM EDT 9:13 PM EDT
Moon 8:50 AM EDT 11:06 PM EDT
Length of Visible Light 13h 50m
Length of Day
12h 56m
Waxing Crescent, 11% of the Moon is Illuminated
Apr 8
Waxing Crescent
Apr 12
First Quarter
Apr 19
Full
Apr 26
Last Quarter
May 4
New

Hourly Weather History & Observations

Time (EDT) Temp. Heat Index Dew Point Humidity Pressure Visibility Wind Dir Wind Speed Gust Speed Precip Events Conditions
12:15 AM 62.6 °F - 59.0 °F 88% 30.03 in 10.0 mi SSW 6.9 mph - N/A   Overcast
12:30 AM 60.8 °F - 59.0 °F 94% 30.03 in 10.0 mi SSW 6.9 mph - N/A   Overcast
12:55 AM 60.8 °F - 59.0 °F 94% 30.02 in 7.0 mi South 5.8 mph - N/A   Overcast
1:15 AM 60.8 °F - 59.0 °F 94% 30.01 in 10.0 mi SSE 3.5 mph - N/A   Mostly Cloudy
1:35 AM 60.8 °F - 59.0 °F 94% 30.00 in 10.0 mi South 5.8 mph - N/A   Scattered Clouds
1:55 AM 59.0 °F - 59.0 °F 100% 29.98 in 10.0 mi South 3.5 mph - N/A   Clear
2:15 AM 59.0 °F - 59.0 °F 100% 29.97 in 10.0 mi South 3.5 mph - N/A   Clear
2:35 AM 59.0 °F - 59.0 °F 100% 29.97 in 10.0 mi South 4.6 mph - N/A   Clear
2:55 AM 59.0 °F - 59.0 °F 100% 29.96 in 10.0 mi Calm Calm - N/A   Mostly Cloudy
3:15 AM 59.0 °F - 59.0 °F 100% 29.95 in 10.0 mi South 3.5 mph - N/A   Mostly Cloudy
3:35 AM 55.4 °F - 55.4 °F 100% 29.95 in 10.0 mi Calm Calm - N/A   Mostly Cloudy
3:55 AM 57.2 °F - 57.2 °F 100% 29.94 in 10.0 mi Calm Calm - N/A   Overcast
4:15 AM 59.0 °F - 59.0 °F 100% 29.93 in 10.0 mi Calm Calm - N/A   Overcast
4:35 AM 59.0 °F - 59.0 °F 100% 29.93 in 10.0 mi SSW 3.5 mph - N/A   Overcast
4:55 AM 59.0 °F - 59.0 °F 100% 29.93 in 10.0 mi Calm Calm - N/A   Overcast
5:15 AM 59.0 °F - 59.0 °F 100% 29.93 in 10.0 mi SSW 4.6 mph - N/A   Overcast
5:35 AM 59.0 °F - 59.0 °F 100% 29.92 in 10.0 mi Calm Calm - N/A   Overcast
5:55 AM 57.2 °F - 57.2 °F 100% 29.92 in 10.0 mi SSW 5.8 mph - N/A   Mostly Cloudy
6:15 AM 59.0 °F - 59.0 °F 100% 29.93 in 10.0 mi SSW 4.6 mph - N/A   Scattered Clouds
6:35 AM 57.2 °F - 57.2 °F 100% 29.93 in 10.0 mi SSW 5.8 mph - N/A   Clear
6:55 AM 55.4 °F - 55.4 °F 100% 29.94 in 10.0 mi SSW 4.6 mph - N/A   Clear
7:15 AM 57.2 °F - 57.2 °F 100% 29.93 in 10.0 mi SSW 5.8 mph - N/A   Clear
7:35 AM 59.0 °F - 59.0 °F 100% 29.93 in 10.0 mi SSW 5.8 mph - N/A   Clear
7:55 AM 59.0 °F - 59.0 °F 100% 29.93 in 10.0 mi SSW 8.1 mph - N/A   Clear
8:15 AM 60.8 °F - 59.0 °F 94% 29.93 in 10.0 mi SSW 4.6 mph - N/A   Clear
8:35 AM 62.6 °F - 60.8 °F 94% 29.92 in 10.0 mi SSW 6.9 mph - N/A   Clear
8:55 AM 62.6 °F - 60.8 °F 94% 29.91 in 10.0 mi SW 4.6 mph - N/A   Clear
9:15 AM 64.4 °F - 60.8 °F 88% 29.92 in 10.0 mi SW 4.6 mph - N/A   Clear
9:35 AM 68.0 °F - 62.6 °F 83% 29.92 in 10.0 mi SSW 9.2 mph - N/A   Clear
9:55 AM 69.8 °F - 62.6 °F 78% 29.90 in 10.0 mi SSW 8.1 mph - N/A   Clear
10:15 AM 71.6 °F - 60.8 °F 69% 29.89 in 10.0 mi WSW 11.5 mph 17.3 mph N/A   Clear
10:35 AM 73.4 °F - 60.8 °F 65% 29.89 in 10.0 mi WSW 11.5 mph 20.7 mph N/A   Clear
10:55 AM 75.2 °F - 60.8 °F 61% 29.89 in 10.0 mi SW 11.5 mph 16.1 mph N/A   Clear
11:15 AM 73.4 °F - 60.8 °F 65% 29.88 in 10.0 mi West 8.1 mph 17.3 mph N/A   Clear
11:35 AM 77.0 °F - 60.8 °F 57% 29.88 in 10.0 mi West 11.5 mph - N/A   Clear
11:55 AM 77.0 °F - 60.8 °F 57% 29.88 in 10.0 mi WSW 10.4 mph 21.9 mph N/A   Clear
12:15 PM 78.8 °F - 60.8 °F 54% 29.86 in 10.0 mi WSW 8.1 mph - N/A   Clear
12:35 PM 80.6 °F 81.5 °F 60.8 °F 51% 29.86 in 10.0 mi West 10.4 mph 19.6 mph N/A   Scattered Clouds
12:55 PM 80.6 °F 81.1 °F 59.0 °F 48% 29.85 in 10.0 mi West 16.1 mph 26.5 mph N/A   Scattered Clouds
1:15 PM 80.6 °F 81.1 °F 59.0 °F 48% 29.83 in 10.0 mi West 16.1 mph 27.6 mph N/A   Clear
1:35 PM 78.8 °F - 59.0 °F 51% 29.84 in 10.0 mi West 9.2 mph 18.4 mph N/A   Clear
1:55 PM 78.8 °F - 59.0 °F 51% 29.83 in 10.0 mi WNW 16.1 mph 21.9 mph N/A   Clear
2:15 PM 80.6 °F 81.1 °F 59.0 °F 48% 29.84 in 10.0 mi WNW 15.0 mph 21.9 mph N/A   Clear
2:35 PM 78.8 °F - 59.0 °F 51% 29.84 in 10.0 mi West 15.0 mph 26.5 mph N/A   Clear
2:55 PM 78.8 °F - 59.0 °F 51% 29.83 in 10.0 mi West 11.5 mph 19.6 mph N/A   Clear
3:15 PM 80.6 °F 81.1 °F 59.0 °F 48% 29.82 in 10.0 mi WNW 16.1 mph 20.7 mph N/A   Clear
3:35 PM 78.8 °F - 59.0 °F 51% 29.81 in 10.0 mi WNW 11.5 mph 17.3 mph N/A   Scattered Clouds
3:55 PM 78.8 °F - 59.0 °F 51% 29.80 in 10.0 mi WNW 10.4 mph - N/A   Mostly Cloudy
4:15 PM 77.0 °F - 59.0 °F 54% 29.80 in 10.0 mi West 3.5 mph - N/A   Overcast
4:35 PM 77.0 °F - 59.0 °F 54% 29.80 in 10.0 mi West 6.9 mph - N/A   Overcast
4:55 PM 77.0 °F - 59.0 °F 54% 29.80 in 10.0 mi West 9.2 mph - N/A   Overcast
5:15 PM 77.0 °F - 60.8 °F 57% 29.80 in 10.0 mi West 6.9 mph - N/A   Overcast
5:35 PM 75.2 °F - 59.0 °F 57% 29.80 in 10.0 mi West 9.2 mph - N/A   Overcast
5:55 PM 73.4 °F - 59.0 °F 61% 29.81 in 10.0 mi West 5.8 mph - N/A   Overcast
6:15 PM 73.4 °F - 59.0 °F 61% 29.82 in 10.0 mi WNW 6.9 mph - N/A   Overcast
6:35 PM 71.6 °F - 59.0 °F 64% 29.81 in 10.0 mi NW 9.2 mph 12.7 mph N/A   Overcast
6:55 PM 69.8 °F - 59.0 °F 68% 29.82 in 10.0 mi WNW 6.9 mph - N/A   Overcast
7:15 PM 69.8 °F - 59.0 °F 68% 29.82 in 10.0 mi WNW 8.1 mph - N/A   Overcast
7:35 PM 68.0 °F - 59.0 °F 73% 29.80 in 10.0 mi NW 5.8 mph - N/A   Overcast
7:55 PM 68.0 °F - 59.0 °F 73% 29.79 in 10.0 mi North 3.5 mph - N/A   Overcast
8:15 PM 68.0 °F - 60.8 °F 78% 29.79 in 10.0 mi Calm Calm - N/A   Overcast
8:35 PM 66.2 °F - 60.8 °F 83% 29.79 in 10.0 mi Calm Calm - N/A   Overcast
8:55 PM 66.2 °F - 60.8 °F 83% 29.80 in 10.0 mi SSW 3.5 mph - N/A   Overcast
9:15 PM 66.2 °F - 60.8 °F 83% 29.81 in 10.0 mi Calm Calm - N/A   Overcast
9:35 PM 64.4 °F - 60.8 °F 88% 29.81 in 10.0 mi NW 6.9 mph - N/A   Overcast
9:55 PM 66.2 °F - 59.0 °F 78% 29.81 in 10.0 mi NW 6.9 mph - N/A   Overcast
10:15 PM 66.2 °F - 59.0 °F 78% 29.81 in 10.0 mi West 4.6 mph - N/A   Overcast
10:35 PM 64.4 °F - 60.8 °F 88% 29.81 in 10.0 mi SSW 4.6 mph - N/A   Overcast
10:55 PM 64.4 °F - 59.0 °F 83% 29.82 in 10.0 mi WSW 5.8 mph - N/A   Overcast
11:15 PM 66.2 °F - 59.0 °F 78% 29.81 in 10.0 mi WSW 3.5 mph - N/A   Overcast
11:35 PM 64.4 °F - 59.0 °F 83% 29.81 in 10.0 mi SW 3.5 mph - N/A   Overcast
11:55 PM 64.4 °F - 59.0 °F 83% 29.80 in 10.0 mi Calm Calm - N/A   Overcast